Content
SEND FEEDBACK

Daily
Averages
Monthly
Summary
United States of America

STEAMBOAT SPRINGS, COLORADO


Home > North America > United States > Colorado
Elevation: 6917 feet     Latitude: 40 30N     Longitude: 106 50W

WEATHER
 
SELECT A DAY
Number of Records: 85,223;   Date Range: 1/3/95 - 9/19/14
 
SHARE

PRINT THIS DATA

[ ← Previous Day ]
WEATHER ALMANAC - JANUARY 6, 2013
[ Next Day → ]
[ °C ]   °F
Weather ElementAverageHighLow
Temperature7.6 °F21.7 °F (1:15 pm)-3.1 °F (6:35 am)
Dewpoint0.3 °F5.2 °F (3:35 pm)-8.7 °F (6:35 am)
Humidity73.2 %86 % (1:35 am)49 % (1:15 pm)
Barometer30.18 in30.33 in (12:35 am)30.08 in (7:35 pm)
Wind Speed0.2 mph4.6 mph (5:35 pm)
Weather ElementAverage
Visibility10 mi
Wind DirectionNNE (5.9 °)

Weather ElementTotal
Precipitation---
Heating Degree Days55.7 (Base 65)
Averaged from 66 records on January 6, 2013
WEATHER CONDITIONS BREAKOUT
WIND DIRECTION BREAKOUT
WEATHER BY HOUR - JANUARY 6, 2013
[ °C ]   °F
Local TimeTemperatureDewpointHumidityBarometerVisibilityWind DirectionWind SpeedGust SpeedPrecipitationEventsConditions
12:35 AM3.4 °F-0.6 °F84 %30.33 in10.0 miCalmClear
12:55 AM2.5 °F-1.1 °F85 %30.32 in10.0 miCalmClear
1:15 AM1.4 °F-2.6 °F83 %30.32 in10.0 miCalmClear
1:35 AM1.4 °F-1.8 °F86 %30.32 in10.0 miCalmClear
1:55 AM0.9 °F-2.7 °F85 %30.32 in10.0 miCalmClear
2:15 AM2.1 °F-1.5 °F85 %30.32 in10.0 miCalmClear
2:35 AM1.9 °F-2.4 °F82 %30.32 in10.0 miCalmClear
2:55 AM1.9 °F-1.3 °F86 %30.31 in10.0 miCalmClear
3:15 AM0.1 °F-4.0 °F83 %30.30 in10.0 miCalmClear
3:35 AM-2.6 °F-6.5 °F83 %30.29 in10.0 miCalmClear
3:55 AM-0.8 °F-4.7 °F83 %30.29 in10.0 miCalmClear
4:35 AM-0.9 °F-4.7 °F84 %30.28 in10.0 miCalmClear
4:55 AM-1.7 °F-5.4 °F84 %30.27 in10.0 miCalmClear
5:15 AM-2.4 °F-6.5 °F82 %30.27 in10.0 miCalmClear
5:35 AM-1.3 °F-5.6 °F82 %30.27 in10.0 miCalmClear
5:55 AM-1.1 °F-4.9 °F84 %30.27 in10.0 miCalmClear
6:15 AM-0.2 °F-4.2 °F83 %30.27 in10.0 miCalmClear
6:35 AM-3.1 °F-8.7 °F77 %30.26 in10.0 miCalmClear
6:55 AM-3.1 °F-7.8 °F80 %30.26 in10.0 miCalmClear
7:15 AM-2.9 °F-7.1 °F82 %30.26 in10.0 miCalmClear
7:35 AM-1.7 °F-5.4 °F84 %30.27 in10.0 miCalmClear
7:55 AM0.0 °F-4.0 °F83 %30.27 in10.0 miCalmClear
8:15 AM2.1 °F-1.7 °F84 %30.26 in10.0 miCalmClear
8:35 AM0.9 °F-4.5 °F78 %30.26 in10.0 miCalmClear
8:55 AM0.0 °F-5.1 °F79 %30.26 in10.0 miCalmClear
9:15 AM0.3 °F-5.4 °F77 %30.25 in10.0 miCalmClear
9:35 AM1.8 °F-4.0 °F77 %30.25 in10.0 miCalmClear
9:55 AM2.5 °F-2.6 °F79 %30.25 in10.0 miCalmClear
10:35 AM10.2 °F3.0 °F73 %30.23 in10.0 miCalmClear
11:15 AM9.0 °F0.5 °F69 %30.20 in10.0 miCalmClear
11:35 AM10.2 °F1.4 °F68 %30.18 in10.0 miCalmClear
11:55 AM10.6 °F1.2 °F66 %30.17 in10.0 miCalmClear
12:15 PM12.4 °F1.2 °F61 %30.16 in10.0 miCalmClear
12:35 PM15.4 °F3.9 °F60 %30.15 in10.0 miCalmClear
12:55 PM15.8 °F3.6 °F59 %30.13 in10.0 miCalmClear
1:15 PM21.7 °F5.0 °F49 %30.12 in10.0 miCalmClear
1:35 PM19.6 °F4.3 °F52 %30.10 in10.0 miCalmClear
2:15 PM17.4 °F3.2 °F54 %30.10 in10.0 miCalmClear
2:35 PM17.2 °F3.4 °F55 %30.09 in10.0 miCalmClear
2:55 PM16.0 °F3.2 °F57 %30.10 in10.0 miCalmClear
3:15 PM17.6 °F4.8 °F57 %30.10 in10.0 miCalmClear
3:35 PM17.4 °F5.2 °F59 %30.10 in10.0 miCalmClear
3:55 PM15.8 °F4.6 °F61 %30.10 in10.0 miNE (40°)3.5 mphClear
4:15 PM17.2 °F4.6 °F58 %30.10 in10.0 miCalmClear
4:35 PM16.9 °F5.0 °F60 %30.10 in10.0 miCalmClear
4:55 PM12.9 °F3.2 °F65 %30.10 in10.0 miCalmClear
5:15 PM11.3 °F2.8 °F69 %30.11 in10.0 miCalmClear
5:35 PM13.3 °F3.6 °F65 %30.10 in10.0 miEast (90°)4.6 mphClear
5:55 PM10.9 °F3.2 °F71 %30.10 in10.0 miCalmClear
6:15 PM15.4 °F4.8 °F63 %30.10 in10.0 miCalmClear
6:35 PM11.1 °F3.2 °F70 %30.10 in10.0 miCalmClear
6:55 PM12.0 °F3.4 °F68 %30.09 in10.0 miWest (260°)3.5 mphClear
7:15 PM10.9 °F3.6 °F72 %30.09 in10.0 miCalmMostly Cloudy
7:35 PM11.1 °F3.6 °F72 %30.08 in10.0 miCalmScattered Clouds
7:55 PM10.9 °F3.9 °F73 %30.08 in10.0 miCalmClear
8:15 PM12.2 °F4.5 °F71 %30.09 in10.0 miCalmClear
8:35 PM13.3 °F5.0 °F70 %30.09 in10.0 miCalmClear
8:55 PM13.8 °F4.6 °F67 %30.08 in10.0 miCalmClear
9:15 PM11.5 °F4.1 °F72 %30.08 in10.0 miCalmClear
9:35 PM12.7 °F4.5 °F70 %30.09 in10.0 miCalmClear
9:55 PM9.3 °F3.2 °F76 %30.08 in10.0 miCalmScattered Clouds
10:35 PM10.2 °F4.1 °F76 %30.08 in10.0 miCalmMostly Cloudy
10:55 PM8.6 °F3.2 °F79 %30.08 in10.0 miCalmScattered Clouds
11:15 PM8.2 °F2.5 °F77 %30.08 in10.0 miCalmScattered Clouds
11:35 PM9.5 °F4.8 °F81 %30.08 in10.0 miCalmClear
11:55 PM7.7 °F3.2 °F82 %30.08 in10.0 miCalmClear
Hourly data recorded from KSBS, located miles away from Steamboat Springs, Colorado







STORIES FROM OUR PARTNERS